Theta_e
305 305 303 301 300 300 300 303 304 305 307 301 300 303 298 297 293 306 310 312 309 300 292 290 291 288 289 290 289 291 290 290 292 291 292 292 293 293 292 290 289 288 289 288 288 289 285 287 286 287 288 288 291 288 293 293 293 294 287 289 288 291 278 278 275 279 279 284 284 286 285 288 287 286 283 285 285 282 280 274 275 281 274 275 273 271 281
304 305 305 302 301 300 300 301 303 303 305 302 301 297 296 297 297 300 309 312 308 296 284 285 288 289 288 290 289 290 291 290 291 292 293 291 291 291 290 291 291 289 288 290 288 291 283 287 288 286 286 285 290 292 292 294 291 292 289 289 291 283 280 283 272 270 277 278 283 285 285 286 281 281 284 285 284 283 281 279 276 278 278 279 277 276 282
304 304 304 305 303 301 300 300 302 302 304 304 300 296 299 297 299 299 302 308 305 292 290 287 288 288 287 286 287 288 289 289 292 292 291 293 291 291 291 292 291 290 290 290 291 292 290 282 289 289 286 289 291 291 294 295 293 294 293 296 295 289 282 282 276 276 274 271 275 279 282 284 284 278 283 287 288 286 285 281 278 278 278 279 278 281 285
303 304 304 305 305 303 301 301 301 301 302 305 302 298 296 293 286 294 296 300 299 298 297 293 289 287 287 286 288 290 287 290 289 292 292 293 293 292 291 290 291 290 290 288 288 289 291 289 284 288 286 286 289 290 293 294 294 295 296 294 293 281 282 285 285 283 280 282 284 284 286 283 283 284 285 286 288 289 289 283 280 281 279 275 284 286 285
302 303 303 304 304 304 302 301 301 301 302 303 299 297 295 295 288 289 285 294 294 288 293 292 291 286 290 286 289 286 289 290 290 293 290 293 293 291 291 291 290 287 289 288 287 290 290 287 285 287 288 286 287 290 291 294 295 295 293 294 289 280 283 285 285 286 287 287 285 285 290 287 287 286 284 287 287 287 286 285 283 287 277 280 285 285 283
302 302 303 303 304 304 304 302 301 302 301 303 298 291 295 287 291 292 294 288 284 285 286 292 289 291 291 287 291 288 288 289 287 292 293 293 293 291 289 289 290 290 291 289 285 286 287 287 286 286 287 287 288 290 290 292 294 294 292 292 291 285 284 286 284 285 287 285 283 286 288 288 288 288 286 285 287 286 285 286 288 286 283 282 287 285 284
302 302 302 303 304 304 304 304 302 302 301 302 295 290 294 294 292 292 297 289 289 289 291 292 291 289 290 288 290 287 288 287 290 291 290 292 291 293 287 289 291 289 288 291 286 286 284 284 286 285 285 287 285 285 288 291 289 291 289 289 286 287 283 284 285 285 286 285 283 286 287 286 285 286 287 288 287 286 287 288 289 288 285 288 288 288 286
301 301 302 302 303 304 304 304 303 302 302 300 293 292 291 289 289 287 294 294 290 291 292 292 291 287 290 285 286 288 288 287 290 292 291 287 290 293 291 291 291 290 290 289 288 289 291 290 287 286 289 284 285 289 289 286 287 290 289 290 288 290 284 289 283 283 284 286 284 284 285 285 284 285 286 287 288 288 288 288 288 288 287 287 287 286 286
300 301 301 302 302 303 303 303 304 302 304 292 290 290 293 294 294 295 290 289 291 291 291 289 288 286 287 286 287 288 289 288 291 291 295 292 290 292 291 293 290 290 290 290 289 290 290 290 291 292 292 289 291 291 288 292 289 289 289 289 289 289 284 285 284 282 283 285 284 282 282 281 283 284 285 285 285 284 286 285 287 286 285 287 286 285 286
300 300 301 301 301 302 303 304 304 303 303 293 290 285 292 294 296 296 293 285 292 289 290 291 288 284 287 287 289 288 288 291 292 288 294 295 295 295 294 293 292 290 290 290 292 294 293 294 292 293 293 293 292 292 291 294 293 289 290 288 288 288 286 284 283 283 283 287 283 281 282 282 282 283 286 287 286 287 288 289 290 290 290 286 284 286 292
299 300 300 300 301 301 303 302 303 303 300 292 288 285 289 290 291 293 293 285 287 289 289 289 287 289 289 290 289 291 290 291 292 288 288 293 294 296 295 294 292 290 291 294 297 298 298 298 296 296 296 295 293 292 292 292 292 293 292 287 287 288 288 287 286 284 284 284 280 284 282 277 280 291 293 291 288 287 285 286 288 290 290 289 292 293 294
299 299 299 300 300 301 301 302 302 303 301 297 294 288 290 292 292 292 288 284 285 288 288 287 289 289 288 290 290 289 289 290 291 294 290 290 293 295 295 294 293 289 296 300 299 299 298 297 296 296 294 294 293 292 291 291 291 290 290 292 288 288 288 287 285 285 284 281 283 281 277 279 291 294 293 293 293 291 289 290 290 291 291 292 291 292 292
298 299 299 299 300 300 301 302 303 302 303 298 295 290 291 291 291 289 287 285 284 286 285 287 289 288 289 290 289 290 292 292 293 294 294 292 291 293 295 294 293 295 301 300 300 298 291 287 287 287 288 288 289 290 290 290 289 291 290 289 291 288 288 285 284 284 283 279 281 277 278 287 289 290 291 291 291 291 289 287 290 291 291 292 292 294 295
298 298 298 299 299 299 300 301 302 302 302 301 295 293 292 292 290 288 288 285 284 287 287 286 286 286 288 289 289 290 291 291 292 294 292 294 292 292 294 296 297 301 301 301 297 294 287 288 286 286 285 287 287 287 287 290 289 290 289 289 289 289 289 287 285 287 283 284 283 282 286 285 286 287 287 289 287 287 288 285 288 291 292 292 292 293 294
297 297 298 298 298 299 299 300 301 301 302 303 299 295 294 294 292 288 290 288 283 286 287 282 285 286 287 287 289 287 288 289 289 289 293 294 291 293 295 295 294 300 300 297 290 290 287 286 283 283 283 283 279 282 289 286 289 291 291 289 290 290 288 287 286 285 287 284 282 282 282 279 285 291 288 292 292 293 293 290 287 288 291 294 293 292 293
297 297 297 297 298 298 299 299 300 301 301 302 299 297 295 295 293 291 288 285 285 279 284 289 288 286 285 285 289 288 287 287 287 288 288 289 290 292 291 292 292 297 299 294 291 288 285 284 282 283 280 282 285 284 279 286 286 287 289 289 289 290 290 288 287 285 285 283 281 281 279 283 290 288 289 291 291 293 289 287 285 290 287 286 289 292 290
297 297 297 297 297 298 298 299 299 300 301 301 297 297 295 297 294 292 288 286 285 281 287 287 288 287 284 283 285 286 286 286 288 285 285 286 288 289 290 291 293 296 297 293 289 287 284 284 285 285 284 285 284 281 286 284 282 283 285 288 287 287 287 287 285 284 285 284 282 280 285 284 286 284 284 286 289 293 290 281 282 290 284 285 288 290 288
295 296 296 297 297 297 298 298 299 299 300 302 299 296 295 298 296 294 290 287 284 284 288 289 286 286 284 284 284 286 286 285 285 286 285 286 287 288 289 291 290 293 295 290 287 286 285 285 282 283 282 286 286 287 279 283 282 281 283 285 284 285 285 286 283 285 285 285 283 285 285 287 285 284 283 285 289 292 284 280 287 286 285 284 287 287 286
296 296 296 297 297 297 297 298 298 298 299 300 299 296 295 298 297 296 291 287 284 280 287 291 291 287 287 287 285 285 286 290 288 286 285 286 285 288 289 288 292 289 290 285 286 285 285 284 287 285 283 283 286 282 286 283 281 284 285 284 284 285 286 285 286 284 284 285 283 283 286 287 286 285 286 288 290 282 283 287 284 286 284 283 285 286 283
295 296 296 296 296 297 297 297 298 298 298 300 298 293 296 298 298 296 291 285 285 283 285 287 289 287 290 287 286 286 285 287 287 287 285 284 287 288 288 287 287 287 286 287 283 285 284 282 285 286 283 284 285 286 281 281 285 283 284 287 285 285 284 281 283 285 285 284 282 282 278 288 289 290 288 289 287 287 288 286 284 283 285 285 283 285 286
295 295 296 296 296 296 297 297 297 297 298 299 298 293 292 297 297 298 297 292 285 282 282 289 289 290 290 289 290 290 289 288 288 287 286 285 288 290 282 284 287 289 284 286 282 284 285 283 284 283 286 286 286 286 280 284 282 285 285 286 286 289 285 284 285 288 282 282 280 281 287 288 289 293 288 288 285 287 287 289 285 283 285 285 286 285 285
295 295 295 296 296 296 296 296 297 297 298 298 298 295 291 295 297 297 297 296 288 283 283 289 292 290 291 292 293 293 293 292 292 292 289 284 286 289 284 284 288 288 288 287 285 284 285 285 286 283 283 283 286 282 285 283 280 283 284 286 282 289 287 286 285 287 286 283 285 287 283 284 286 285 285 286 287 287 285 288 289 287 287 285 287 287 285
295 295 295 295 296 296 296 296 296 297 297 297 297 293 290 294 294 298 296 290 290 291 288 286 288 288 289 290 291 292 293 293 293 290 289 288 285 284 281 285 285 287 286 287 286 286 285 286 283 286 284 285 284 283 284 283 282 285 283 287 286 286 286 287 287 284 285 286 285 286 284 286 285 287 286 287 285 284 285 288 288 287 287 286 287 286 285
294 295 295 295 295 295 296 296 296 296 297 297 296 293 292 294 295 295 293 291 286 284 286 288 286 284 286 287 291 289 291 292 294 294 294 292 285 282 285 285 287 284 283 287 289 285 285 285 285 285 283 286 286 282 282 281 282 285 284 284 285 286 287 287 285 286 286 283 286 285 285 285 286 287 286 286 285 285 285 287 288 287 286 285 285 285 285
294 294 295 295 295 295 295 296 296 295 296 297 296 295 295 294 295 295 289 282 283 283 278 282 285 290 291 291 288 287 290 292 295 295 294 292 290 287 285 288 289 287 285 288 285 286 287 283 284 283 282 286 287 283 288 284 282 286 283 284 285 286 287 286 285 287 286 284 285 284 285 285 286 287 287 287 287 286 286 286 286 285 285 284 284 284 283
293 294 294 295 295 295 295 296 296 296 296 297 295 291 291 291 296 296 293 289 285 284 280 278 281 291 289 289 288 291 290 292 292 292 292 292 292 293 291 288 287 287 287 286 287 286 285 285 284 284 284 284 289 283 282 285 284 284 286 285 286 286 288 284 286 284 284 285 285 284 286 286 286 285 285 286 286 285 284 284 284 284 284 283 282 282 282
294 294 294 295 295 295 295 295 296 296 296 296 293 292 292 293 296 294 290 288 285 280 280 279 276 277 285 288 290 288 289 293 292 293 291 290 292 291 291 289 289 286 286 284 284 285 285 284 286 283 285 284 287 284 286 283 283 282 281 284 286 286 284 284 285 281 281 282 283 285 283 282 285 284 285 285 284 283 282 282 282 283 283 282 280 277 276
294 294 294 294 295 295 295 295 295 296 296 295 294 291 293 293 294 295 296 292 287 279 280 280 278 278 283 285 287 288 291 293 292 291 290 289 290 291 290 289 287 285 283 285 283 282 280 284 281 286 284 284 285 282 285 285 285 282 282 284 286 285 285 284 283 284 283 285 286 287 286 286 287 285 284 283 283 282 280 279 279 280 281 282 280 277 275
294 293 293 294 294 294 294 294 295 296 296 295 290 289 290 293 295 296 295 295 287 281 279 278 277 282 278 280 289 288 290 291 290 290 289 287 288 287 288 288 287 284 282 283 284 284 281 281 285 282 281 285 285 281 284 279 281 281 284 287 286 285 285 288 287 285 285 287 288 286 286 285 283 282 281 279 280 279 278 277 278 278 277 277 277 278 276
293 293 294 294 294 295 295 295 296 296 296 291 286 285 282 285 293 294 296 295 291 286 281 278 274 277 279 279 278 285 287 289 289 288 288 287 287 287 287 287 283 286 282 283 283 279 282 280 280 281 282 287 283 282 282 279 281 283 285 285 288 280 279 279 278 285 285 282 286 286 284 284 281 278 276 276 276 277 276 276 276 275 274 275 273 272 272
293 294 294 294 294 294 294 294 295 296 295 288 285 279 277 276 286 295 297 295 293 287 282 279 276 276 276 278 283 285 286 287 287 287 286 287 287 286 284 286 283 288 282 283 283 282 284 280 282 281 282 284 285 279 278 278 276 277 283 284 284 281 279 276 276 278 281 280 278 278 277 275 274 275 274 273 273 274 273 273 273 273 272 271 270 270 270
293 294 294 295 294 294 294 295 295 296 291 286 283 281 283 284 289 295 297 296 292 285 280 277 274 273 275 281 281 283 285 285 285 282 281 284 282 284 283 286 284 288 286 281 281 283 280 282 284 282 283 286 286 274 276 275 277 278 281 280 277 275 275 274 276 278 279 280 279 277 276 275 278 279 277 272 271 272 272 272 271 270 269 268 268 267 267
293 293 294 294 295 294 294 294 294 293 289 290 294 295 295 293 294 297 297 294 289 284 283 277 274 276 275 276 282 281 283 283 282 284 280 283 282 283 280 282 282 283 291 285 277 280 284 284 281 283 284 286 281 280 279 280 280 281 279 279 274 273 272 272 274 277 279 275 275 283 277 276 276 270 271 270 270 269 269 269 269 268 267 265 265 265 264
293 294 294 294 295 294 294 294 294 295 294 288 284 285 289 295 295 297 295 291 286 285 281 278 274 271 270 278 277 281 287 283 281 285 279 283 279 283 278 284 281 282 280 282 280 281 276 280 281 281 286 281 280 279 278 282 286 278 274 272 271 270 270 271 272 272 270 271 271 272 278 274 269 268 268 267 266 267 267 267 266 264 264 263 263 263 263
293 293 294 294 294 295 294 293 289 288 283 284 286 288 291 295 295 296 293 287 281 278 278 277 278 273 272 273 275 280 287 285 280 283 280 282 285 280 281 279 280 280 277 285 278 276 279 281 283 281 278 282 281 277 280 282 281 273 271 270 270 270 272 272 270 268 269 270 269 269 268 268 267 266 265 265 265 265 264 264 265 265 263 263 263 262 262
293 293 294 293 293 293 289 289 286 284 282 282 284 291 294 295 295 293 290 288 285 280 278 277 278 275 277 272 272 276 285 282 283 281 278 280 279 280 279 280 278 281 285 282 277 280 279 281 281 276 281 279 278 281 282 284 278 273 273 273 271 274 275 278 272 267 266 268 268 268 268 268 267 264 264 263 263 263 263 262 262 263 262 261 261 261 260
292 292 293 292 289 286 281 282 287 286 284 288 291 295 295 293 289 289 287 286 284 284 279 279 275 276 277 272 270 276 284 275 283 279 281 279 278 280 279 279 275 281 276 277 280 279 281 285 278 274 278 276 278 269 265 266 274 275 274 274 273 269 267 268 268 267 265 265 265 265 265 264 263 263 262 262 262 262 261 260 260 259 259 259 259 258 258
291 292 288 283 281 278 278 281 283 288 293 293 293 287 286 287 280 281 282 280 282 283 277 277 276 273 272 275 272 282 282 276 283 277 279 282 280 274 279 278 277 279 267 275 279 285 278 277 276 275 278 268 263 263 263 263 262 263 266 267 267 266 267 268 268 269 267 265 263 262 261 261 262 262 261 260 260 259 260 259 259 259 258 258 258 258 256
289 285 283 282 281 278 280 282 290 294 291 289 288 279 276 281 280 275 275 279 280 275 279 278 275 275 276 274 273 282 278 278 276 279 274 282 276 271 277 273 279 279 271 273 273 285 274 273 278 278 276 268 264 263 262 261 260 261 261 262 262 263 265 266 265 267 271 271 271 268 267 267 262 261 261 260 260 260 260 259 258 258 257 257 257 256 255
282 279 279 279 279 280 286 291 295 290 287 280 278 280 274 277 277 271 279 271 271 277 279 273 275 274 279 277 277 275 283 279 274 275 276 277 279 271 274 271 275 275 268 272 271 280 274 273 276 276 274 273 265 262 259 260 259 259 260 260 260 260 261 261 261 260 260 259 259 259 260 263 265 262 260 259 259 258 258 257 257 257 256 256 257 256 254
282 282 282 279 281 283 286 288 287 284 280 274 273 273 274 269 270 274 274 272 273 272 276 276 275 274 275 277 280 276 281 280 274 273 276 274 277 274 269 269 277 270 270 271 270 268 271 272 274 273 276 271 261 258 258 258 258 259 259 259 259 259 259 259 259 259 258 257 257 256 256 258 259 259 260 260 259 258 258 257 256 255 254 254 256 256 256
284 284 284 285 284 284 281 279 278 275 273 275 272 268 271 271 272 267 271 270 269 273 271 273 273 275 276 280 278 279 275 273 274 274 270 269 278 268 266 262 263 265 267 271 268 266 269 268 271 271 265 255 257 257 257 256 256 256 257 258 259 258 258 257 257 256 256 256 255 255 256 255 256 257 257 257 257 256 256 255 255 256 255 255 255 253 253
291 288 286 281 280 278 279 274 275 276 270 267 267 264 267 264 267 269 269 271 271 273 273 275 274 280 275 275 275 273 276 279 276 271 266 268 275 268 264 264 262 257 261 260 266 270 268 266 266 271 257 253 254 255 255 255 255 256 257 258 258 258 257 256 256 255 256 255 254 254 254 255 255 256 256 256 256 255 256 256 256 254 254 252 252 252 251
286 283 279 276 276 274 276 267 276 271 267 267 268 264 266 266 265 266 267 269 269 271 273 274 275 277 273 273 276 274 274 276 277 267 265 267 263 264 266 262 262 266 262 259 265 264 266 265 267 260 252 253 252 253 253 254 254 255 255 257 257 257 257 256 256 255 255 255 255 254 254 254 255 254 254 255 255 255 254 254 254 254 253 253 251 251 251
279 275 273 272 269 272 271 265 272 268 265 266 271 267 267 266 268 270 272 266 268 275 275 278 278 277 275 271 274 273 278 271 276 269 267 266 262 265 264 265 262 255 259 262 260 259 260 265 257 248 253 252 254 252 253 254 254 254 255 255 256 256 256 255 255 255 255 255 255 255 254 255 255 254 254 253 254 254 252 252 252 253 252 252 251 251 251
275 273 272 270 266 267 268 266 265 263 262 259 259 261 266 268 269 268 258 255 262 275 275 277 277 276 271 268 274 273 271 272 271 268 268 266 267 263 263 262 259 260 258 257 259 264 266 267 258 252 254 253 252 252 252 253 254 255 255 254 254 255 255 255 255 254 255 255 254 254 254 254 254 254 254 254 253 253 253 253 253 253 253 253 252 252 252
271 270 269 268 266 264 264 263 261 258 257 253 255 254 257 257 257 258 256 255 259 264 272 272 276 274 273 269 272 270 269 269 269 269 268 263 262 266 268 265 263 262 261 260 259 261 263 260 252 251 252 251 251 251 251 252 252 254 254 254 254 254 254 254 254 254 254 254 254 254 254 253 253 254 254 254 254 254 253 253 254 254 254 254 253 252 252
266 266 266 264 261 260 258 255 256 256 256 256 256 257 257 257 259 259 257 256 256 257 275 274 274 274 272 270 272 270 267 266 268 268 268 268 269 264 265 264 262 263 259 260 264 264 261 253 250 250 250 251 251 251 251 252 253 253 253 253 253 253 254 254 254 254 254 253 253 253 253 253 253 253 254 253 253 253 252 252 252 252 253 253 253 252 252
261 260 259 256 256 255 254 256 256 256 256 256 257 258 258 258 257 256 256 256 257 259 261 273 273 273 269 270 271 272 270 271 268 268 268 263 263 264 265 261 260 259 263 263 261 253 250 249 248 249 249 249 249 250 251 252 252 252 253 252 252 253 253 253 253 253 253 253 253 253 253 253 253 253 253 253 253 253 253 252 251 251 250 251 250 250 250
258 254 252 254 258 256 256 256 257 257 256 256 256 256 257 259 257 256 255 255 256 257 264 274 276 273 269 270 267 268 269 266 265 268 265 264 261 258 258 254 257 261 260 252 247 247 247 247 248 248 248 249 250 250 250 251 251 251 251 252 252 252 252 253 253 253 253 253 253 252 253 253 252 253 253 253 253 254 253 252 251 250 250 250 250 249 250
256 251 248 247 251 252 253 257 257 257 257 254 252 252 253 254 254 255 255 253 253 260 270 270 268 266 265 265 266 265 265 270 268 265 266 263 262 259 258 261 261 255 248 245 247 247 247 249 248 247 248 248 249 249 250 251 251 251 251 251 252 252 252 252 252 252 252 252 253 252 252 252 253 253 254 254 254 253 253 253 251 249 249 249 248 247 248
254 252 250 251 251 250 250 253 252 252 251 251 250 251 252 252 253 253 254 253 256 270 269 264 266 265 263 263 266 266 266 266 266 265 261 258 254 261 258 257 252 244 246 247 247 247 247 246 247 248 247 249 249 249 250 250 250 250 250 251 251 251 252 252 252 252 252 251 251 251 251 251 251 252 253 253 253 252 250 249 249 247 247 247 246 246 246
Wind_Speed
7 8 4 1 2 1 0 4 7 9 10 3 2 1 5 6 3 0 12 11 14 12 8 2 5 7 3 4 2 2 2 2 2 2 1 3 0 1 2 5 5 4 4 4 6 12 6 11 10 6 9 6 11 5 12 11 13 12 5 5 1 6 4 4 1 1 3 2 4 1 1 3 3 3 1 5 7 6 6 4 6 8 2 2 1 2 6
7 6 7 4 2 1 2 1 4 7 8 2 1 1 1 3 2 0 6 13 10 7 8 12 14 12 1 2 2 3 1 1 0 1 1 2 2 3 2 1 3 4 3 6 9 9 4 5 8 5 4 5 5 8 8 15 8 11 8 12 8 5 4 8 2 2 2 5 3 2 2 1 3 3 3 4 3 3 2 5 2 2 8 8 7 11 11
7 7 6 7 5 3 3 0 3 4 5 4 1 2 0 2 1 1 1 7 12 8 3 6 12 13 7 4 7 3 0 3 2 1 1 1 0 1 3 3 4 1 3 4 5 11 10 3 8 4 2 5 0 6 13 13 10 10 7 8 10 8 6 10 8 12 11 8 10 15 12 9 2 2 6 9 11 8 6 6 3 6 6 10 7 12 4
7 8 7 6 7 4 4 4 4 2 4 5 1 1 1 2 4 2 1 1 1 1 4 2 3 8 8 7 9 6 4 1 1 4 1 1 0 0 1 3 3 4 5 4 5 8 8 5 5 9 5 3 1 6 9 12 8 8 10 7 10 3 2 8 12 15 15 15 9 3 12 4 7 8 11 8 9 12 11 4 6 14 5 7 13 16 10
6 7 8 8 7 7 6 5 5 4 1 4 1 1 1 1 2 4 3 2 2 1 2 10 7 7 10 9 6 12 14 4 1 4 1 2 3 1 1 1 5 3 6 6 5 8 10 1 3 8 10 3 2 3 8 10 12 10 7 9 6 3 5 9 12 15 15 13 7 9 17 15 16 13 9 13 12 12 13 12 15 9 4 12 11 7 8
8 7 7 7 9 8 8 8 7 6 4 2 2 0 2 3 1 1 2 4 4 5 6 9 11 4 10 4 2 14 15 10 7 1 3 2 1 3 1 1 5 7 11 5 5 6 6 6 7 3 3 3 1 3 2 4 1 7 3 5 5 6 8 8 7 12 14 7 3 8 9 12 13 15 14 13 16 13 16 18 20 9 11 16 16 9 12
9 8 7 7 9 11 9 10 10 8 7 4 1 1 1 1 2 2 1 2 4 6 3 9 9 9 12 4 4 7 13 16 14 6 3 3 1 4 5 6 9 7 4 8 6 7 6 7 6 5 5 9 4 2 2 2 3 4 2 4 1 4 5 5 7 12 12 9 7 9 13 8 6 11 15 17 18 19 22 22 21 16 12 15 19 15 16
11 9 8 8 8 9 11 10 11 12 8 5 2 3 2 4 2 2 1 0 2 7 6 8 10 10 12 7 9 8 11 16 13 6 4 3 7 3 8 9 6 5 5 5 10 10 13 11 11 3 7 3 3 7 7 5 1 1 5 5 3 6 6 9 5 6 9 12 7 6 10 9 9 10 12 15 18 21 23 20 17 13 12 12 12 13 17
12 11 9 9 9 8 10 12 12 12 10 3 2 1 3 2 2 2 2 2 3 3 8 7 9 6 7 8 5 5 10 13 12 11 10 13 11 10 18 13 5 0 2 3 5 4 5 5 10 13 15 14 9 9 5 7 8 7 4 2 1 5 4 2 4 5 6 7 8 10 6 5 7 10 12 13 16 15 10 11 8 8 13 16 14 14 18
12 12 11 10 10 9 9 10 13 14 13 3 4 3 1 2 2 0 3 2 2 5 3 7 8 7 7 9 6 7 12 3 7 5 4 8 9 6 15 11 8 6 4 8 7 2 2 2 1 1 2 1 3 2 4 16 16 9 11 5 7 8 6 5 5 8 9 9 5 8 7 3 7 12 18 21 9 11 10 11 13 17 18 13 11 18 17
13 13 13 12 11 11 10 12 14 16 9 6 4 2 3 5 1 1 0 2 2 2 5 5 10 3 6 8 6 4 3 8 10 12 4 9 15 7 2 6 10 8 11 4 3 6 6 5 3 4 8 7 4 3 2 2 3 11 14 4 2 8 11 9 7 10 7 8 8 8 8 12 15 16 14 11 17 15 10 13 18 16 10 12 15 17 14
14 14 14 13 13 13 12 12 13 16 13 4 5 4 4 3 1 1 3 9 8 3 3 4 9 2 7 10 8 8 8 10 11 11 9 2 5 6 4 2 5 9 2 6 7 5 4 2 4 5 6 6 5 4 6 4 1 1 3 12 10 10 10 8 4 7 10 5 9 6 14 15 14 1 9 18 17 15 21 20 16 15 14 11 12 14 16
15 15 14 15 15 15 14 13 13 14 15 6 6 6 4 2 3 3 1 3 7 7 8 8 4 1 5 8 9 9 8 7 6 7 7 3 0 3 8 10 10 5 7 10 6 5 3 2 3 2 3 4 3 4 3 0 0 1 1 2 10 13 13 5 3 3 5 3 8 13 15 6 1 2 6 2 7 9 10 10 13 14 17 19 21 24 21
16 16 15 15 15 16 16 15 14 14 16 12 7 7 4 4 5 3 3 2 3 4 7 6 3 3 2 9 10 9 5 5 5 5 7 6 7 5 3 3 4 6 9 10 7 6 1 1 3 1 3 2 4 3 3 1 3 2 4 3 1 8 6 7 8 5 14 10 13 15 3 7 4 5 6 8 8 7 11 13 15 14 13 16 19 22 18
16 16 16 16 17 16 17 17 16 15 14 14 7 6 6 5 5 4 1 2 3 1 3 9 9 13 8 3 4 5 6 6 7 8 8 1 4 4 4 2 1 9 7 8 3 3 4 3 5 6 3 7 9 8 3 5 1 6 4 2 4 4 11 5 11 7 10 12 11 6 7 14 17 15 0 5 7 10 9 11 11 4 13 17 19 19 15
17 17 17 17 17 17 17 18 18 16 15 14 9 7 9 8 5 3 3 4 2 7 9 8 1 4 7 6 6 8 5 5 6 4 3 4 5 0 1 1 1 3 5 4 4 4 5 7 6 8 8 8 4 4 5 3 3 2 5 4 3 0 2 0 11 3 7 9 11 11 12 15 12 4 6 8 7 11 6 6 14 7 9 7 8 12 8
18 18 18 18 18 18 18 18 19 18 16 14 7 8 8 9 8 7 4 1 3 8 4 3 4 1 1 2 2 5 5 6 6 4 3 6 6 4 1 1 0 5 9 6 3 5 6 6 3 5 2 3 6 5 5 5 4 1 1 4 5 3 3 4 6 8 7 8 11 13 6 8 4 4 3 3 4 11 9 11 12 8 8 6 7 11 9
19 19 19 19 19 19 19 19 20 19 18 17 9 7 7 9 9 7 5 6 8 10 9 4 5 9 9 3 4 1 3 3 3 0 1 2 3 3 3 2 3 2 3 9 5 7 8 8 11 8 9 3 2 5 9 7 7 7 9 13 8 7 4 8 13 12 13 14 9 3 6 3 3 3 3 2 6 11 12 18 10 4 6 4 6 6 6
18 19 19 19 19 19 20 20 20 20 19 19 8 6 8 8 10 10 6 6 7 10 7 9 4 3 1 2 3 3 3 7 6 5 2 1 4 4 5 2 2 3 2 4 4 7 8 6 1 3 5 3 4 7 4 8 7 1 6 8 6 8 7 3 8 14 13 12 14 12 4 5 7 0 8 6 8 6 15 2 1 11 7 4 7 8 4
19 19 19 20 21 20 20 20 21 20 20 21 11 7 4 9 10 12 11 9 6 10 3 5 7 13 5 2 5 5 1 1 4 7 6 8 1 6 3 5 1 2 1 3 4 2 3 5 6 2 5 6 6 2 1 3 1 8 5 13 12 12 9 8 10 5 4 5 9 7 12 4 7 10 2 2 9 7 5 7 3 3 6 8 4 6 5
19 19 20 20 21 22 22 21 21 21 21 22 15 8 8 5 10 11 10 8 6 8 8 5 5 11 8 8 6 3 3 7 7 8 6 5 6 6 6 5 7 6 6 6 7 4 4 3 3 3 2 2 4 2 5 5 3 5 4 7 6 5 9 5 6 7 8 9 9 8 4 5 5 10 11 6 3 3 9 12 7 2 5 4 6 2 3
20 19 20 21 21 22 23 23 22 22 22 22 19 7 9 6 9 10 10 8 8 7 2 7 9 6 7 6 7 7 6 4 5 3 7 5 3 6 2 2 5 4 2 2 3 1 1 2 1 2 2 3 1 3 2 8 7 2 0 2 3 6 9 4 9 5 9 5 4 0 1 1 1 1 0 3 4 5 3 6 11 11 6 4 6 6 4
21 20 20 21 22 22 21 23 23 22 23 22 16 7 9 6 8 9 10 11 5 3 2 1 0 2 2 4 3 5 5 3 3 2 2 5 3 1 3 4 3 1 1 1 4 4 3 4 4 2 1 1 4 3 1 1 1 4 7 3 2 3 1 0 5 1 2 2 0 0 2 2 2 4 3 6 4 2 3 8 9 3 5 5 7 6 7
22 21 20 21 23 24 23 22 23 23 23 23 18 7 9 8 6 7 8 7 6 9 4 3 6 9 11 15 11 2 1 2 4 2 1 1 5 2 1 2 1 2 1 1 0 3 3 3 3 2 3 3 3 2 4 5 5 2 1 1 1 1 0 1 3 2 6 4 2 1 1 3 3 6 5 6 4 2 2 5 5 7 6 5 4 6 6
22 21 21 21 21 24 24 23 23 24 24 24 19 11 7 6 7 10 9 8 5 8 7 5 13 10 9 6 3 2 5 5 3 4 4 2 3 5 6 2 2 3 5 5 1 5 3 3 1 2 5 3 6 7 5 5 5 5 4 3 2 3 3 3 1 3 4 1 5 1 2 2 3 2 5 5 6 7 6 6 6 7 7 6 5 6 7
21 21 21 22 22 23 25 24 23 23 24 26 21 9 9 9 8 9 9 3 1 2 9 7 5 9 3 5 6 6 5 6 4 4 4 4 4 3 6 2 3 2 4 2 3 4 3 1 2 1 3 4 2 3 1 3 1 1 8 7 4 2 5 3 4 4 2 4 3 3 4 2 2 4 4 3 6 9 8 7 8 8 10 10 10 8 7
21 21 22 22 23 22 25 26 25 24 25 25 16 9 8 7 8 12 9 6 5 4 6 8 2 1 5 14 5 3 3 8 7 7 4 3 5 4 5 4 6 3 4 2 2 3 2 2 2 3 2 2 2 1 0 2 0 1 3 2 0 4 7 1 5 5 6 9 10 11 9 5 5 3 3 5 4 8 9 7 8 7 9 8 11 9 8
20 22 23 22 23 24 24 27 25 25 25 24 16 9 8 9 8 10 11 10 12 4 3 6 3 4 1 8 3 4 6 10 10 8 7 6 6 7 6 6 5 4 1 4 1 2 1 4 4 2 1 2 1 4 3 2 2 1 1 3 4 6 5 6 6 7 8 4 9 8 3 4 4 8 6 6 3 6 10 8 8 6 5 6 9 9 8
21 22 23 23 23 24 26 27 25 23 24 20 8 7 6 9 8 11 13 10 3 3 4 1 0 6 8 6 8 7 8 11 9 9 8 7 7 6 7 6 6 5 3 3 2 2 2 3 2 4 3 4 3 3 2 2 4 6 6 6 5 3 3 9 7 5 2 5 14 8 6 9 7 8 8 6 3 8 10 6 6 6 6 7 7 5 8
22 22 23 23 23 24 26 26 25 23 21 8 5 5 9 8 11 11 12 13 7 2 3 4 3 6 2 4 2 5 6 7 10 10 10 8 8 8 8 7 4 3 3 4 4 3 3 2 1 2 1 0 4 3 2 2 3 5 1 2 5 2 2 2 1 2 4 2 4 3 6 10 10 10 7 5 4 3 7 6 5 7 6 6 8 7 7
21 21 21 22 24 24 25 27 26 25 21 7 7 7 7 10 8 12 17 13 10 5 2 1 4 1 3 2 2 12 12 8 9 10 9 9 8 6 3 4 0 4 3 2 2 4 1 2 1 2 1 3 3 2 4 3 3 3 4 5 4 4 2 1 2 3 9 9 10 9 10 9 8 11 8 5 5 5 6 6 7 7 7 8 7 7 7
20 21 22 22 24 25 26 27 27 24 13 11 12 9 3 3 0 13 17 14 10 4 4 5 1 1 2 1 2 2 6 6 4 3 2 3 3 1 3 6 6 5 6 5 2 2 3 4 2 2 2 5 3 2 2 2 5 6 3 5 1 3 3 4 5 6 8 14 18 14 8 7 7 6 10 8 6 6 7 9 7 7 8 8 7 8 7
20 21 21 21 22 25 26 26 28 20 11 12 12 15 9 5 3 13 17 14 8 4 2 2 5 3 2 5 2 1 4 5 4 6 4 3 7 4 4 1 2 1 3 5 3 5 4 5 4 6 5 1 4 2 4 9 7 3 5 7 5 4 3 2 4 4 7 1 3 9 13 16 14 6 11 9 7 7 7 8 8 6 6 6 6 5 4
21 20 21 20 21 24 26 26 26 25 15 7 9 11 12 15 7 16 15 11 3 2 2 3 3 3 3 1 6 5 5 10 8 10 7 2 4 6 5 5 2 5 3 7 3 3 2 2 6 4 4 3 2 1 6 6 7 4 6 4 4 6 4 5 3 4 3 5 4 5 6 11 12 10 9 9 8 6 5 5 7 8 6 6 5 5 4
19 20 20 20 21 22 25 23 14 10 10 10 7 9 10 17 14 15 17 8 7 5 4 3 2 6 3 3 6 5 4 7 9 8 8 4 3 6 3 4 2 7 5 4 1 3 5 7 5 5 8 5 7 8 5 5 7 6 5 7 5 7 5 5 1 1 2 4 8 10 12 14 18 13 8 7 7 5 7 4 2 7 8 4 5 4 2
18 19 19 19 20 18 10 14 11 9 8 6 9 9 16 17 17 10 11 7 3 4 5 4 6 8 9 10 9 4 4 5 2 4 1 2 2 1 2 3 6 6 1 3 4 4 6 4 4 7 5 9 12 7 8 10 7 9 10 12 13 14 9 11 13 8 6 7 9 10 10 8 11 11 7 7 6 5 4 6 4 3 6 7 5 4 3
18 19 20 17 10 6 8 6 7 10 8 9 8 15 18 12 3 5 7 6 2 0 3 6 6 8 9 6 1 2 9 9 5 5 5 4 6 2 3 3 7 2 3 2 4 8 8 4 4 5 8 12 9 1 1 2 3 9 10 9 10 4 6 9 12 15 13 9 8 6 6 9 7 5 7 5 5 4 5 5 3 4 6 6 4 4 3
17 16 7 3 4 6 6 9 6 9 12 15 17 9 9 10 6 6 4 5 2 4 3 1 9 4 3 7 6 6 8 6 8 7 5 3 5 1 2 3 5 4 3 5 8 6 1 3 5 5 11 0 3 2 1 2 2 5 3 6 6 4 6 11 13 16 13 8 4 3 4 3 5 5 9 8 6 6 4 5 4 5 5 4 4 3 3
11 4 4 5 5 5 6 6 10 20 12 7 6 3 3 2 6 4 6 3 3 6 3 7 8 6 8 6 1 2 3 8 10 7 9 7 5 3 2 6 5 4 2 2 5 8 3 2 4 7 10 3 4 2 3 3 4 5 5 6 6 4 4 5 1 4 11 9 11 16 16 17 23 17 9 8 7 5 6 6 6 6 5 4 4 3 2
3 3 4 6 10 5 2 11 25 14 7 6 3 5 5 3 9 4 3 5 2 2 5 7 3 5 11 16 15 7 2 8 11 10 8 5 0 6 2 3 3 4 3 5 4 5 5 6 6 6 9 7 5 2 5 3 5 5 5 5 6 7 6 6 5 6 7 6 8 9 7 6 8 12 11 10 10 10 8 7 5 4 4 3 3 3 2
4 3 5 7 5 4 5 10 7 6 5 3 2 0 2 2 3 2 4 7 5 3 1 4 5 4 1 3 10 11 1 4 2 3 3 5 2 6 3 3 3 5 3 4 2 5 2 3 5 8 11 4 4 6 5 6 5 4 5 5 6 5 6 8 8 6 6 8 7 9 8 7 9 8 7 8 8 8 8 8 6 5 4 3 3 2 2
7 5 1 6 5 5 5 3 2 4 1 1 3 4 3 1 2 1 2 7 6 3 1 4 10 11 9 10 8 5 1 0 3 2 3 2 2 4 3 0 2 4 3 4 2 2 2 2 3 4 4 3 2 4 4 5 3 3 4 4 6 6 7 8 8 8 7 6 5 6 6 7 8 7 6 8 8 7 8 7 7 6 5 3 3 2 2
13 12 9 5 3 1 1 2 2 2 5 2 3 2 1 3 4 6 3 1 1 4 5 3 3 5 3 4 5 2 4 2 2 1 3 4 0 3 3 1 2 2 4 1 3 3 2 4 4 8 3 5 4 5 4 4 4 5 6 6 6 6 7 7 7 7 7 6 6 5 6 8 8 5 6 7 8 6 4 4 6 5 5 5 3 3 3
9 4 5 1 3 2 2 5 1 4 1 0 5 6 4 4 3 1 5 5 3 4 5 14 11 15 9 1 5 2 3 2 2 3 2 0 4 1 2 2 4 4 2 2 2 4 5 3 8 3 5 3 3 4 6 5 5 5 5 6 6 7 7 7 7 7 7 6 5 5 6 7 7 6 6 6 6 8 8 6 4 5 4 5 4 4 2
4 3 2 3 2 2 2 1 1 2 5 4 3 3 4 7 6 5 10 2 2 13 7 8 13 15 11 3 4 2 1 3 1 5 2 2 4 0 4 3 1 2 3 2 0 1 2 5 3 3 6 8 6 5 4 4 4 6 6 6 6 6 6 6 6 6 5 5 5 5 5 6 6 5 5 6 5 4 5 4 4 5 5 5 4 4 3
3 4 3 5 2 3 0 1 2 2 1 1 2 2 5 7 7 6 2 2 4 9 11 12 11 12 7 2 5 5 2 3 4 0 2 2 4 1 2 0 3 3 2 2 2 6 9 8 5 6 6 7 7 5 5 4 4 4 7 6 5 6 6 6 6 6 5 5 5 5 4 5 5 6 5 5 6 5 5 5 4 5 5 6 4 3 3
4 3 2 2 3 1 1 3 3 1 0 1 2 2 2 1 1 3 1 2 1 0 8 6 9 7 11 2 4 3 2 2 3 2 3 3 2 1 2 3 1 2 4 4 4 6 7 6 2 3 7 8 7 5 5 4 3 4 5 6 6 6 6 6 6 6 6 6 6 5 4 4 4 4 5 6 5 5 4 4 6 5 6 5 4 4 3
5 1 2 4 2 0 2 1 0 2 2 1 2 3 4 4 1 3 2 2 3 5 12 13 11 7 7 2 4 4 3 1 4 2 1 2 2 4 1 3 0 1 3 5 9 7 5 1 3 5 6 6 7 7 5 5 5 5 5 6 6 6 5 6 6 6 6 6 5 5 5 4 4 4 5 5 5 4 4 5 6 5 6 5 4 4 3
5 4 5 5 2 2 1 2 3 3 2 2 1 2 2 6 5 3 5 3 3 1 1 7 7 6 4 1 4 2 2 1 4 3 2 3 3 3 3 4 2 1 6 8 6 2 2 2 3 6 6 7 5 5 5 4 5 6 5 5 5 5 5 5 6 6 5 5 5 5 5 4 4 4 5 5 6 5 4 5 6 5 4 4 3 3 3
7 7 9 5 5 4 1 1 0 3 3 3 4 4 5 4 5 4 4 5 4 4 2 5 4 6 1 3 3 2 1 1 3 1 4 2 3 1 5 1 4 7 5 1 1 1 2 2 4 5 5 5 4 5 5 5 5 5 4 4 4 4 4 5 6 6 5 4 4 5 5 5 4 4 5 5 5 5 6 6 6 6 5 3 3 3 3
3 7 4 4 2 1 3 3 3 5 5 2 4 4 4 3 3 4 6 5 6 2 3 5 2 4 3 2 2 4 1 2 5 2 5 3 1 4 4 5 7 6 2 1 1 3 3 3 4 4 5 4 4 4 4 5 5 5 5 4 4 4 4 5 5 6 5 4 4 6 5 4 3 4 4 6 7 6 7 6 5 5 3 3 3 3 3
5 6 3 2 4 2 3 1 4 6 4 2 2 3 4 1 4 4 6 4 4 6 8 2 4 3 3 3 3 2 2 4 2 2 2 2 1 5 6 5 3 4 6 7 5 4 5 4 4 4 4 4 4 4 5 5 5 5 5 4 4 4 5 5 4 5 4 4 4 4 3 4 5 5 5 6 7 7 6 4 3 3 4 3 4 2 2
Wind_Direction
309 316 297 272 5 129 15 31 21 22 6 42 359 255 130 189 207 49 160 169 164 155 162 76 182 218 220 63 31 52 34 149 294 194 232 206 110 139 168 189 143 243 144 177 156 164 187 175 197 196 214 237 202 238 175 148 161 161 191 168 231 102 89 101 317 316 313 309 306 10 86 179 300 282 96 139 196 175 168 160 183 176 202 171 270 263 245
307 299 316 265 228 90 109 300 35 19 30 60 340 86 120 140 167 202 184 169 177 169 165 175 197 209 59 157 177 25 148 98 9 165 290 173 185 164 175 351 198 166 146 146 175 180 163 229 196 231 224 236 227 141 175 155 170 163 206 173 201 154 260 140 120 19 341 346 341 321 321 135 196 187 208 176 130 130 139 105 84 192 217 177 147 231 259
302 295 287 305 258 241 130 280 87 33 16 46 57 89 163 106 37 330 241 188 179 202 207 202 192 203 194 174 208 199 179 215 190 144 187 61 38 143 224 181 167 158 141 160 166 189 181 150 222 202 181 225 268 199 168 190 176 209 194 169 166 179 175 147 162 192 196 211 200 212 205 192 219 222 187 192 169 172 120 216 185 221 240 161 194 244 218
304 296 286 274 286 241 166 198 156 73 26 11 41 320 93 154 174 198 261 129 39 308 120 152 217 194 174 193 221 195 220 302 315 127 275 193 165 98 271 333 155 146 141 136 171 199 225 164 186 184 220 244 294 208 180 188 199 209 129 145 140 173 178 192 193 199 211 217 218 56 101 102 186 224 181 196 198 187 189 145 178 214 214 159 225 233 249
291 289 283 273 271 266 206 199 181 159 62 47 87 4 227 6 187 155 208 78 226 206 246 183 183 198 178 198 173 199 209 192 3 197 215 234 164 217 166 208 176 237 153 173 187 199 207 208 106 194 197 221 215 349 180 198 210 164 141 164 108 85 191 220 214 220 222 218 201 179 158 177 203 196 197 193 186 190 187 192 220 202 101 244 234 228 242
282 282 278 269 261 259 250 199 184 181 173 130 68 187 201 170 276 98 181 140 189 169 239 201 191 193 168 226 143 201 202 193 202 105 231 111 331 167 304 102 247 184 185 154 184 175 204 185 212 183 241 106 319 115 3 188 241 148 167 188 158 153 199 224 185 235 236 229 139 167 178 187 195 200 191 185 197 187 194 215 225 179 192 227 244 197 221
277 275 271 260 255 245 248 240 191 187 179 128 111 206 224 331 0 256 339 196 180 184 137 178 198 176 181 205 169 202 199 205 209 178 158 170 227 186 217 217 219 218 224 182 193 169 173 233 228 188 176 183 138 126 31 273 55 162 113 180 197 143 235 214 181 220 236 232 172 186 184 206 207 203 202 197 188 196 201 214 219 206 209 229 240 240 227
270 270 269 263 256 250 239 241 220 181 171 111 113 248 199 183 166 289 301 152 125 171 147 178 191 197 180 180 202 194 193 209 213 213 146 175 223 150 228 225 229 203 196 205 208 195 199 193 210 205 159 221 176 191 181 153 353 135 169 174 252 158 251 181 157 200 242 241 204 190 202 189 204 224 215 205 202 204 206 211 219 213 234 245 259 266 267
266 266 263 261 257 247 241 231 231 198 145 76 163 251 194 343 16 23 334 206 175 169 154 165 187 195 187 208 196 184 202 217 202 211 201 203 202 187 218 213 230 13 169 216 245 251 224 231 215 186 173 194 201 171 246 162 159 176 178 185 180 176 257 51 114 185 255 241 202 191 189 216 215 222 221 219 213 216 215 216 210 187 209 224 238 254 254
263 264 261 256 257 252 246 239 227 216 162 121 140 236 243 347 271 123 328 345 204 167 185 158 146 211 203 198 176 180 210 192 141 233 248 248 241 207 215 208 175 230 195 225 226 217 158 169 193 217 260 5 153 169 182 179 165 172 189 170 162 175 165 164 154 210 226 244 162 141 156 154 261 247 231 218 210 214 209 216 212 207 199 207 213 235 245
259 261 260 257 252 250 243 234 224 220 187 171 131 206 150 189 173 146 300 229 304 211 160 194 179 198 158 196 191 192 128 163 169 188 217 201 229 210 130 156 181 215 217 217 167 144 133 139 100 57 64 65 68 34 74 80 191 176 167 151 204 173 188 198 154 215 218 223 120 142 125 208 224 228 217 183 206 197 185 213 217 223 195 213 215 235 248
254 254 255 256 253 247 245 243 230 224 208 199 150 185 204 151 181 356 174 212 227 203 218 223 189 196 177 192 189 193 181 179 197 204 224 176 237 201 181 167 160 220 196 118 109 115 115 30 21 22 47 42 39 32 49 139 100 18 183 175 165 187 190 211 170 211 219 126 115 142 213 230 230 169 150 192 207 191 203 219 217 215 219 240 261 261 252
251 251 250 251 252 249 246 242 240 227 216 184 179 192 228 144 163 163 206 218 230 194 215 226 221 181 179 165 187 212 199 198 206 211 233 227 204 180 203 200 200 212 120 126 123 103 100 111 49 59 324 356 359 360 324 308 337 355 72 130 173 178 191 155 218 146 42 115 168 224 229 238 340 249 221 174 179 189 192 244 237 219 207 210 228 238 242
252 252 251 252 251 250 247 243 239 238 222 202 189 193 187 158 179 191 197 201 223 202 218 251 248 274 180 185 185 200 182 200 206 201 222 221 235 222 227 201 220 140 158 131 128 113 45 101 231 153 283 26 336 294 264 220 220 178 206 222 108 184 163 179 212 183 212 197 211 227 12 325 271 258 225 155 167 151 178 230 237 218 206 208 224 236 239
246 246 247 247 249 249 248 246 243 235 229 212 200 193 195 190 170 172 203 263 254 287 201 214 197 218 205 201 172 156 173 191 186 218 218 186 217 224 203 177 180 158 147 137 145 156 174 133 195 174 170 172 203 218 121 248 203 207 199 145 148 174 189 196 200 217 198 213 228 235 234 244 243 233 235 182 175 178 185 205 262 226 204 208 214 227 234
248 248 247 246 247 248 247 249 246 240 232 221 209 203 206 192 168 148 152 174 225 250 229 231 88 177 201 208 182 179 177 178 198 200 180 200 220 64 301 177 265 167 171 147 156 156 153 196 204 200 207 195 184 122 235 141 221 286 154 158 126 16 62 153 211 205 178 215 226 223 222 233 238 246 175 187 167 161 129 183 242 237 194 199 195 223 223
246 244 244 244 246 247 249 249 247 243 239 227 212 205 212 186 181 177 163 170 206 236 58 201 186 164 125 210 158 194 167 193 164 194 201 214 207 184 53 53 69 165 187 169 193 150 173 203 199 223 252 145 163 204 130 180 150 170 77 108 176 186 182 140 211 217 207 212 221 229 218 248 240 223 247 231 154 118 122 211 239 223 136 167 162 205 197
248 246 244 244 243 244 246 248 249 245 241 235 219 207 209 195 194 162 178 186 212 242 229 215 178 207 213 184 177 230 86 90 93 77 145 207 116 161 189 135 170 249 192 209 151 186 194 198 201 194 210 205 159 148 204 163 186 182 167 177 181 192 192 195 216 215 222 221 242 270 265 262 217 219 227 133 146 144 177 217 227 116 145 145 148 141 150
251 249 246 243 242 242 242 245 247 247 242 237 225 221 221 194 186 190 179 192 196 235 199 216 193 240 288 41 181 173 189 179 159 158 178 66 252 193 140 213 150 185 160 176 170 194 193 216 172 184 180 214 190 207 147 186 196 150 144 153 207 200 196 218 205 223 221 219 227 233 274 232 176 250 145 168 111 213 216 225 64 146 138 159 130 139 156
249 250 248 245 243 243 242 242 243 245 243 239 217 230 202 191 190 195 192 197 198 236 186 183 205 229 222 180 201 198 320 190 180 176 184 213 61 100 103 223 317 97 33 129 205 227 184 201 185 195 216 181 209 132 84 271 37 167 165 185 184 181 188 187 200 198 225 202 227 217 227 241 133 126 60 221 188 225 130 128 35 72 139 135 148 135 164
249 249 248 246 243 241 241 240 241 242 242 241 230 220 231 199 191 202 215 211 183 224 234 214 218 220 220 218 224 206 183 200 182 200 206 194 193 151 195 212 173 170 195 166 193 187 174 201 150 199 244 169 223 131 196 175 236 271 139 183 205 169 190 184 215 178 201 201 215 211 226 148 202 164 187 191 200 168 146 129 117 118 127 141 120 157 164
247 248 249 247 244 242 241 240 238 240 241 240 238 217 237 191 192 198 208 219 223 212 215 203 208 211 206 201 208 209 210 225 244 194 177 196 242 185 202 60 149 161 177 127 66 48 32 176 90 128 186 226 300 198 224 182 199 184 9 136 177 210 206 175 198 166 195 210 207 222 261 213 297 112 192 123 124 125 176 123 137 145 169 153 130 144 151
247 247 247 247 245 242 240 240 240 238 238 239 237 216 225 188 196 194 193 219 229 289 24 346 57 275 309 276 235 196 192 195 149 117 129 145 202 313 146 146 225 209 41 98 173 148 168 133 209 162 97 210 176 212 326 173 206 172 171 243 154 1 160 77 103 259 72 45 219 343 21 84 65 41 68 114 96 42 93 125 117 105 126 145 143 146 142
249 248 249 248 246 244 239 236 238 239 238 237 236 206 226 214 187 182 203 215 198 217 240 234 161 210 205 220 224 263 124 155 178 192 181 121 150 221 335 266 185 46 13 215 156 139 187 123 203 113 204 219 108 167 211 238 220 174 80 326 318 285 133 73 129 208 132 228 118 45 90 68 70 100 57 60 75 103 111 99 98 120 113 103 96 122 124
248 249 248 249 248 245 242 237 233 236 236 237 236 228 227 226 189 194 190 190 191 196 223 157 211 207 207 212 95 129 211 185 150 135 144 118 130 165 196 215 145 157 201 192 124 61 34 124 221 111 199 245 147 237 198 230 265 152 201 235 104 282 185 77 162 148 162 259 150 161 16 33 29 34 122 116 97 79 67 83 97 97 83 83 89 94 83
247 248 248 246 246 245 244 240 235 233 235 235 231 217 215 217 189 194 198 208 51 162 217 219 218 204 110 136 193 205 180 159 142 147 168 188 167 150 149 110 47 7 93 87 95 117 141 86 100 201 184 270 107 193 217 225 257 292 204 211 202 177 113 202 168 119 121 38 51 114 81 23 11 24 28 64 113 113 93 88 93 98 100 90 71 65 80
249 251 251 250 248 244 241 242 235 233 232 234 232 224 219 220 187 194 195 168 155 246 215 229 240 293 178 208 191 111 130 152 160 156 153 124 123 113 112 118 112 80 89 66 46 122 92 124 149 199 176 244 88 201 297 0 42 171 218 242 90 108 189 177 106 122 177 185 185 158 134 209 197 171 138 113 100 110 110 101 88 96 106 106 99 79 68
246 250 251 250 248 246 242 238 235 231 230 231 231 218 211 219 206 202 194 193 206 224 166 183 187 229 90 232 208 143 165 172 171 167 157 154 138 137 133 139 119 95 86 103 86 62 117 168 217 201 84 288 44 271 146 220 81 22 279 252 195 171 189 147 172 181 213 180 166 173 73 64 103 140 128 109 105 113 101 83 99 89 81 107 115 111 82
243 244 248 249 248 245 239 235 232 230 228 227 215 234 242 226 207 206 204 199 137 89 82 186 261 151 172 223 186 185 182 169 169 169 155 153 149 149 149 155 150 147 97 76 128 119 131 213 170 140 170 213 132 257 140 165 195 228 216 194 177 225 200 186 186 119 353 166 163 171 145 161 150 128 117 83 69 107 92 81 75 85 82 70 73 78 112
245 245 245 246 247 246 242 236 226 224 225 209 181 199 227 234 215 205 197 195 177 117 151 170 115 245 346 32 28 172 190 172 169 157 164 162 163 168 167 151 166 142 126 159 160 185 208 188 234 218 272 356 140 232 172 242 230 234 260 133 193 77 30 72 19 163 186 211 146 121 99 101 106 113 83 81 53 72 109 104 98 98 77 76 90 79 56
251 249 247 249 248 244 238 234 226 221 215 186 182 210 202 226 194 185 185 189 173 155 201 108 190 241 32 263 172 188 178 171 171 176 172 170 174 168 179 111 123 159 117 151 150 214 211 246 148 252 221 183 140 171 189 188 233 289 242 188 188 166 144 73 30 71 116 101 81 81 84 97 111 90 56 66 88 96 97 92 79 82 94 82 75 84 87
248 247 248 248 248 248 238 229 223 217 208 198 200 209 192 225 148 168 176 172 154 148 162 138 216 18 217 179 185 228 151 164 135 92 144 125 192 152 176 171 188 177 163 158 211 160 211 189 183 260 205 229 161 135 145 149 207 243 194 171 234 86 100 119 109 92 103 124 111 75 79 136 184 155 164 145 106 85 101 106 96 96 86 86 82 78 85
247 244 244 246 246 243 240 231 223 215 209 208 220 239 237 204 287 179 168 158 155 197 157 148 185 202 152 216 117 320 139 95 116 153 197 206 192 139 195 73 108 82 221 170 219 197 204 193 150 208 227 223 109 219 174 218 218 232 185 169 125 104 98 28 63 103 127 42 351 157 177 184 179 113 107 112 105 104 109 112 114 104 100 98 88 76 67
247 243 242 244 245 243 239 229 224 219 208 180 211 220 228 231 210 187 162 151 128 128 121 169 170 120 192 310 108 228 165 159 170 167 185 189 164 142 185 145 211 166 273 192 231 188 307 91 193 203 212 206 186 177 229 217 212 178 120 111 113 82 66 77 76 99 14 356 42 4 88 102 98 102 97 100 102 86 75 94 118 111 98 89 75 61 47
251 246 245 246 243 240 238 227 213 212 203 207 217 222 205 203 209 188 170 154 145 191 167 215 163 152 119 36 154 183 151 150 174 181 170 186 116 137 187 116 232 190 242 110 191 175 178 207 153 190 221 128 217 218 214 196 207 120 122 123 153 123 90 78 289 339 42 89 82 81 103 116 115 106 120 116 114 121 116 99 128 138 121 103 110 95 79
249 246 247 247 244 235 236 225 209 194 197 199 209 190 186 187 193 189 181 192 158 158 169 196 164 188 158 157 165 221 127 159 152 70 165 133 64 100 96 136 191 205 149 136 193 191 207 201 180 227 173 206 222 195 207 209 186 173 172 181 184 176 185 183 151 125 97 83 91 103 105 101 113 107 104 111 112 120 121 114 90 86 108 122 122 113 80
247 244 246 248 238 211 213 209 187 201 202 194 174 160 175 163 107 173 186 206 293 70 180 167 164 201 172 183 47 243 152 173 154 126 165 127 157 129 117 162 188 165 64 137 180 206 219 184 219 205 203 225 222 113 2 1 198 176 195 191 170 145 95 100 131 120 101 81 80 80 97 114 109 118 111 112 129 121 119 112 143 142 145 136 123 114 82
242 239 227 172 141 191 197 196 186 177 171 156 148 154 166 160 198 158 163 195 209 141 250 143 193 160 57 105 156 198 147 186 127 145 143 169 125 263 185 150 208 145 139 204 214 156 92 181 217 197 235 230 14 44 332 28 347 334 30 106 125 116 124 135 145 127 109 89 55 108 88 88 131 161 145 147 146 142 130 115 104 103 98 109 110 106 79
240 220 205 198 184 194 201 192 160 155 153 157 164 125 188 176 155 198 186 155 144 204 207 184 186 147 145 111 76 343 153 158 144 169 157 190 130 214 163 157 236 120 261 171 269 140 204 209 212 217 241 206 226 237 134 66 28 14 26 26 52 74 115 128 90 168 166 179 193 180 170 176 172 164 165 140 139 123 131 129 127 120 118 116 113 99 111
96 197 211 174 195 189 101 136 142 144 157 168 207 188 213 198 182 216 152 135 196 208 143 192 186 164 180 162 147 177 233 154 161 169 164 159 79 146 204 89 265 112 210 192 229 138 149 171 196 207 238 212 226 128 101 105 63 31 24 38 43 41 36 54 69 76 90 76 58 75 50 60 129 141 151 155 150 144 142 133 127 120 116 117 113 121 136
190 192 201 196 156 122 146 145 118 124 146 93 75 266 180 220 248 178 131 183 168 201 155 133 124 127 5 63 140 143 204 65 8 66 102 141 234 95 72 166 234 94 222 186 251 82 152 185 205 207 225 207 148 152 138 104 100 84 59 65 58 55 64 72 64 47 63 73 62 58 52 75 96 104 102 125 131 130 132 135 130 136 127 123 129 131 116
204 205 104 94 94 98 90 58 136 109 93 174 152 194 179 209 60 358 212 154 190 146 274 154 164 160 167 149 153 120 79 204 123 107 112 141 237 122 190 339 10 117 173 217 101 80 110 151 210 232 222 188 181 119 129 122 103 97 73 60 73 67 74 77 77 52 45 61 75 74 72 85 91 89 103 116 124 120 121 121 128 126 136 145 119 100 65
189 147 128 107 85 46 171 69 275 145 166 147 117 185 167 118 220 166 173 320 326 105 180 55 107 81 7 52 48 16 147 160 123 135 81 157 17 54 101 65 86 80 233 9 72 128 158 200 209 228 144 159 148 139 121 117 97 86 71 70 71 76 80 82 82 74 67 69 74 81 89 86 77 83 87 93 101 102 98 115 126 125 122 115 104 74 56
140 141 87 126 107 280 153 180 175 83 354 228 168 187 170 176 288 62 120 173 180 131 186 142 160 143 163 307 126 150 42 1 80 87 49 321 86 152 83 134 194 237 54 45 83 141 210 217 212 205 168 138 107 134 128 122 115 104 85 85 85 91 93 93 93 89 84 73 63 75 78 91 93 79 76 70 98 122 126 117 119 109 110 101 78 64 46
130 55 84 74 92 266 88 185 14 132 187 201 149 166 180 165 184 195 148 225 97 161 169 154 150 149 143 205 61 9 117 170 278 102 200 126 59 81 116 205 218 38 97 181 105 321 2 264 241 80 178 172 164 143 129 117 122 126 124 106 103 105 109 107 106 104 100 99 109 105 95 113 101 91 87 90 89 101 110 113 116 100 99 95 88 67 37
98 129 117 127 115 336 112 129 92 151 288 53 197 236 176 179 150 177 342 28 141 130 138 151 135 122 114 264 124 165 110 108 78 302 143 68 117 220 239 91 67 75 36 45 124 201 216 234 205 198 173 157 142 144 128 130 121 126 125 126 125 110 106 109 113 114 118 119 112 109 107 101 109 109 107 103 97 88 87 93 95 104 103 91 89 80 45
66 13 73 89 99 163 20 153 212 166 41 160 251 228 259 221 270 89 25 353 348 91 105 99 115 129 126 168 93 17 61 71 110 254 75 70 145 202 19 98 162 158 145 202 225 238 246 248 191 133 136 136 133 122 116 99 103 108 103 109 118 121 119 114 118 116 124 121 120 113 108 109 102 112 116 98 87 78 76 78 75 81 83 87 83 82 62
97 285 59 100 134 73 67 256 54 118 263 229 232 279 252 246 95 45 21 326 286 271 143 125 112 100 60 312 66 131 141 148 89 314 153 159 66 54 81 54 270 203 177 165 219 213 214 169 147 140 130 126 131 129 123 117 102 102 104 111 112 113 116 116 110 114 114 119 121 115 110 107 114 111 107 108 103 89 78 74 69 67 69 73 71 70 69
80 63 80 118 114 112 67 55 115 74 354 340 306 358 5 79 74 28 321 335 5 299 305 110 135 94 122 258 105 144 86 267 107 200 64 30 112 171 148 177 162 288 251 191 220 198 193 128 133 121 125 123 125 125 118 117 116 118 118 117 111 113 109 105 105 103 106 107 117 118 112 109 111 108 110 110 108 97 81 69 66 60 57 68 67 74 64
48 34 23 38 83 50 358 195 288 67 335 26 8 25 348 32 37 19 347 346 330 324 264 99 40 87 151 122 80 74 88 355 130 85 67 152 177 146 75 131 223 189 237 233 180 171 118 122 115 117 115 112 105 112 116 113 97 100 95 99 98 100 103 111 106 102 98 99 100 101 109 108 120 129 129 122 110 101 84 64 58 56 47 48 73 76 77
52 88 117 243 355 100 343 156 188 149 130 15 352 358 1 16 353 323 4 349 331 321 65 118 151 110 100 53 102 91 235 177 79 124 158 179 172 125 171 196 228 200 178 64 76 113 130 121 118 126 113 109 103 95 99 112 113 114 108 109 110 103 89 89 95 96 92 86 104 111 104 106 114 120 115 111 107 95 81 66 54 46 47 48 60 78 83
42 57 10 14 43 46 321 291 32 48 34 18 14 332 357 310 335 301 326 327 296 143 144 211 96 108 95 137 184 157 64 55 162 107 61 276 138 158 212 202 197 192 168 153 140 111 93 83 93 101 112 121 121 117 105 97 105 101 109 104 106 108 115 110 107 102 103 92 78 96 102 104 89 91 102 104 95 82 81 76 38 30 42 49 40 46 87